[[{"header":{"parameterUnit":"m.s-1","parameterCategory":1,"la1":30.2992,"la2":30.254,"lo1":-89.0895,"lo2":-89.0443,"dy":0.0025,"dx":0.0025,"nx":19,"ny":19,"refTime":"2026-05-17T09:00:00:Z","depth":0,"parameterNumber":2,"parameterNumberName":"U-component_of_WINDS"},"data":[0,0,0,-4.606,-4.6061,-4.6106,-4.6106,-4.6178,-4.6179,0,0,0,0,0,0,0,0,0,0,0,-4.6054,-4.6055,-4.606,-4.6061,-4.6106,-4.6106,-4.6178,-4.6179,0,0,0,0,0,0,0,0,0,0,0,-4.6054,-4.6055,-4.6056,-4.6061,-4.6106,-4.6106,-4.6178,-4.6139,0,0,0,0,0,0,0,0,0,0,-4.6093,-4.6095,-4.6055,-4.6056,-4.6061,-4.6106,-4.6106,-4.6137,-4.6141,-4.6164,0,-4.6185,0,-4.6183,-4.6184,-4.6185,0,0,0,-4.6055,-4.6092,-4.6097,-4.6056,-4.6062,-4.6106,-4.6084,-4.6139,-4.6144,-4.617,-4.6186,-4.6188,-4.6185,-4.6185,-4.6185,-4.6335,-4.6336,0,0,-4.6052,-4.6067,-4.6093,-4.61,-4.6094,-4.6083,-4.6085,-4.6142,-4.6161,-4.6186,-4.619,-4.6186,-4.6186,-4.6186,-4.6334,-4.6335,0,0,0,-4.6049,-4.6065,-4.6068,-4.6098,-4.6105,-4.6084,-4.6087,-4.6158,-4.6158,-4.6191,-4.6187,-4.6186,-4.6187,-4.6333,-4.6334,-4.6395,0,0,0,-4.6048,-4.6063,-4.6068,-4.6077,-4.6104,-4.6132,-4.6103,-4.6154,-4.616,-4.6186,-4.6186,-4.6188,-4.6332,-4.6334,-4.6391,-4.6421,0,0,0,-4.6049,-4.6063,-4.6073,-4.6078,-4.6097,-4.6131,-4.6133,-4.6155,-4.6158,-4.6185,-4.6188,-4.6331,-4.6333,-4.6388,-4.6415,-4.6464,0,0,0,-4.6054,-4.6126,-4.6074,-4.6154,-4.6097,-4.6169,-4.6133,-4.6186,-4.6216,-4.6187,-4.6332,-4.6334,-4.6387,-4.6412,-4.646,-4.6507,-4.6528,0,0,-4.6153,-4.6139,-4.6185,-4.6139,-4.6223,-4.6161,-4.6254,-4.6269,-4.6259,-4.631,-4.6314,-4.6393,-4.6415,-4.6463,-4.6643,-4.666,0,0,0,-4.6221,-4.6254,-4.6273,-4.6303,-4.6316,-4.633,-4.6329,-4.6335,-4.6378,-4.6288,-4.6424,-4.6437,-4.6465,-4.6486,-4.65,-4.6523,-4.6345,-4.6345,-4.6345,-4.638,-4.6364,-4.6439,-4.6429,-4.6459,-4.6458,-4.648,-4.6488,-4.6463,-4.6496,-4.651,-4.6621,-4.6647,-4.6657,-4.6681,-4.6535,-4.6535,-4.6535,-4.6535,-4.6522,-4.6566,-4.6533,-4.6593,-4.6576,-4.6627,-4.6631,-4.6612,-4.6657,-4.6608,-4.6632,-4.6579,-4.6676,-4.6696,-4.654,-4.6539,-4.6538,-4.6538,-4.6538,-4.6623,-4.6641,-4.6648,-4.669,-4.6726,-4.6714,-4.6759,-4.6743,-4.6728,-4.6751,-4.6765,-4.6764,-4.6759,-4.6759,-4.676,-4.676,-4.6761,-4.6761,-4.6761,-4.6723,-4.6729,-4.6769,-4.6791,-4.6809,-4.6831,-4.6834,-4.6851,-4.6866,-4.685,-4.685,-4.6822,-4.6689,-4.6655,-4.6767,-4.6766,-4.6765,-4.6765,-4.6764,-4.687,-4.6835,-4.6897,-4.6915,-4.6941,-4.6977,-4.6957,-4.6994,-4.7006,-4.703,-4.6998,-4.6903,-4.6886,-4.6875,-4.6846,-4.7001,-4.7001,-4.7001,-4.7001,-4.6954,-4.6945,-4.7005,-4.7035,-4.7063,-4.7052,-4.7123,-4.7127,-4.7125,-4.7132,-4.7108,-4.707,-4.706,-4.705,-4.7034,-4.7007,-4.7199,-4.72,-4.72,-4.7043,-4.7037,-4.7099,-4.7097,-4.7117,-4.7135,-4.7201,-4.7238,-4.7229,-4.7207,-4.7137,-4.7129,-4.7067,-4.7048,-4.7021,-4.6998,-4.6948,0,0]},{"header":{"parameterUnit":"m.s-1","parameterCategory":1,"la1":30.2992,"la2":30.254,"lo1":-89.0895,"lo2":-89.0443,"dy":0.0025,"dx":0.0025,"nx":19,"ny":19,"refTime":"2026-05-17T09:00:00:Z","depth":0,"parameterNumber":3,"parameterNumberName":"V-component_of_WINDS"},"data":[0,0,0,4.6253,4.6253,4.6291,4.6291,4.6329,4.633,0,0,0,0,0,0,0,0,0,0,0,4.6236,4.6236,4.6253,4.6253,4.6291,4.6291,4.6329,4.633,0,0,0,0,0,0,0,0,0,0,0,4.6236,4.6236,4.6236,4.6253,4.6291,4.6291,4.6329,4.6304,0,0,0,0,0,0,0,0,0,0,4.6269,4.6249,4.6236,4.6236,4.6254,4.6291,4.6291,4.6303,4.6306,4.6308,0,4.631,0,4.632,4.6332,4.6332,0,0,0,4.6257,4.6247,4.6262,4.6236,4.6254,4.6291,4.6275,4.6305,4.6308,4.6312,4.6311,4.6312,4.6321,4.6332,4.6332,4.6338,4.6338,0,0,4.6255,4.624,4.626,4.6264,4.6258,4.6274,4.6276,4.6307,4.6304,4.6311,4.6313,4.6322,4.6332,4.6332,4.6338,4.6338,0,0,0,4.6246,4.6238,4.6253,4.6262,4.6269,4.6275,4.6278,4.6303,4.6309,4.6314,4.6322,4.6332,4.6333,4.6338,4.6338,4.6317,0,0,0,4.6245,4.6233,4.6252,4.6243,4.6269,4.6287,4.6272,4.6307,4.6311,4.6322,4.6332,4.6333,4.6338,4.6338,4.6318,4.6309,0,0,0,4.6235,4.6232,4.6236,4.6242,4.6258,4.6286,4.6294,4.6308,4.6315,4.6332,4.6333,4.6338,4.6338,4.6319,4.6311,4.6307,0,0,0,4.622,4.6215,4.6235,4.6233,4.6257,4.6274,4.6294,4.6307,4.6319,4.6332,4.6338,4.6338,4.6319,4.6311,4.6308,4.6301,4.6297,0,0,4.6205,4.6213,4.6213,4.6232,4.6241,4.6269,4.6275,4.6299,4.6314,4.6329,4.6329,4.6318,4.6311,4.6307,4.6279,4.6276,0,0,0,4.6203,4.6203,4.6209,4.622,4.624,4.6256,4.6281,4.629,4.6304,4.6319,4.6316,4.6312,4.6311,4.6308,4.6305,4.6305,4.6336,4.6336,4.6336,4.616,4.6181,4.6183,4.6209,4.6219,4.6246,4.6257,4.6274,4.629,4.6289,4.6293,4.6274,4.6271,4.6269,4.6268,4.6292,4.6292,4.6292,4.6291,4.6141,4.6144,4.6169,4.6179,4.6201,4.621,4.6236,4.6248,4.6259,4.6272,4.6272,4.6284,4.6264,4.6265,4.629,4.629,4.6291,4.6291,4.6291,4.6115,4.612,4.6133,4.6152,4.6165,4.6191,4.6201,4.622,4.6238,4.6238,4.6245,4.6246,4.6249,4.624,4.624,4.624,4.624,4.624,4.624,4.6082,4.6098,4.6105,4.6127,4.6137,4.6153,4.6182,4.6192,4.6209,4.6222,4.6222,4.6239,4.6259,4.6263,4.6239,4.6239,4.6239,4.624,4.624,4.6055,4.6065,4.6076,4.6087,4.6115,4.6126,4.6152,4.6172,4.6183,4.6188,4.6206,4.6217,4.6226,4.6228,4.6232,4.6201,4.6201,4.6201,4.6201,4.6033,4.604,4.6057,4.6073,4.6091,4.6115,4.6127,4.6149,4.6174,4.6182,4.619,4.6196,4.6198,4.6206,4.6209,4.6213,4.6177,4.6177,4.6177,4.6018,4.6028,4.6034,4.606,4.6084,4.6104,4.6115,4.6133,4.6162,4.6177,4.6189,4.619,4.6202,4.6204,4.6219,4.6223,4.6231,0,0]}]]